星链-36147(STARLINK-36147)

导读 | 豆包AI

STARLINK-36147是美国太空探索技术公司(SpaceX)星链(Starlink)互联网星座项目中的一颗低轨卫星,于2025年12月8日发射入轨。该卫星运行在近地轨道,作为星链大规模组网的一部分,旨在为全球尤其是偏远缺网地区提供高速、低延迟的宽带互联网服务,助力全球无缝通信网络构建,拓展卫星互联网覆盖范围与服务能力。

基本信息
目录编号:
66987
目录名称:
STARLINK-36147
国际标识:
2025-288AE
轨道中心:
EARTH
卫星名称:
星链-36147
卫星全名:
星链-36147(STARLINK-36147)
卫星状态:
在轨 (已飞行96 天)
发射日期:
2025-12-08 UTC
国别 :
美国 (US)
星等 :
--
轨道信息
数据来源 国际轨道数据
星历时间: 2026-03-13T12:35:35+0800
22小时前
查看轨道信息
半长轴: 6861.147km
偏心率: 0.0001816
轨道倾角: 43.005°
近地点辐角 251.769°
升交点赤经 3.610°
平近点角 108.296°
近地点: 481.764km
远地点: 484.256km
周期: 94.266分钟
每日圈数: 15.275932
详细信息
固有亮度:
5
最大亮度:
2.5
卫星平台:
Starlink V1.0
覆盖范围:
全球
运营商:
太空探索技术公司
运营商所在国:
美国
制造商(研发单位):
太空探索技术公司
制造商所在国:
美国
使用方式:
暂无
卫星简介
Starlink 计划是 SpaceX 推出的全球卫星互联网项目,通过发射低轨道卫星,为全球尤其是偏远地区提供高速、低延迟的互联网服务。自 2019 年起,Starlink 已部署数千颗卫星,旨在缩小全球数字鸿沟,推动互联网普及。该项目还为军事、航空等行业提供通信支持,带来广泛经济效益。
2D轨道图
3D轨道图
轨道高度分析图
轨道倾角分析图
轨道综合分析图
查看轨道综合分析图